Regional Weather Roundup
Issued by NWS

Home | Current Version | Previous Version | Graphics & Text | Print | Product List | Glossary On
Versions: 1 2 3 4 5 6 7 8 9 10 11 12 13 14 15 16 17 18 19 20 21 22 23 24 25 26 27 28 29 30 31 32 33 34 35 36 37 38 39 40 41 42 43 44 45 46 47 48 49 50
000
ASUS45 KPSR 031410
RWRAZ

ARIZONA REGIONAL HOURLY WEATHER ROUNDUP
NATIONAL WEATHER SERVICE PHOENIX AZ
700 AM MST SUN MAY 03 2015

NOTE: FAIR INDICATES FEW OR NO CLOUDS BELOW 12,000 FEET WITH NO
SIGNIFICANT WEATHER AND/OR OBSTRUCTIONS TO VISIBILITY.

AZZ001>003-036-031500-
NORTHWEST ARIZONA

CITY           SKY/WX    TMP DP  RH WIND       PRES   REMARKS
BULLHEAD CITY  MOSUNNY   75  39  27 S6        29.81R
KINGMAN        MOSUNNY   69  33  26 CALM      29.93R
$$

AZZ004>008-015-016-018-031500-
NORTH CENTRAL ARIZONA

CITY           SKY/WX    TMP DP  RH WIND       PRES   REMARKS
GRAND CANYON   MOSUNNY   48  33  56 VRB3      30.13R
WILLIAMS       MOSUNNY   55  36  47 SE12      30.18S
PRESCOTT       PTSUNNY   60  36  40 S6        30.05R
FLAGSTAFF      CLOUDY    50  36  58 VRB5      30.14S
PAYSON         MOSUNNY   63  37  39 CALM      30.08R
PAGE           CLOUDY    65  33  30 CALM      29.97R
$$

AZZ009>014-017-031500-
NORTHEAST ARIZONA

CITY           SKY/WX    TMP DP  RH WIND       PRES   REMARKS
WINSLOW        PTSUNNY   56  36  47 E5        30.03R
SAINT JOHNS    MOSUNNY   51  34  52 CALM      30.08R
WINDOW ROCK    MOSUNNY   46  40  79 CALM      30.13R
SHOW LOW       PTSUNNY   50  32  50 S10       30.14R
$$

AZZ023-031500-
GREATER PHOENIX AREA

CITY           SKY/WX    TMP DP  RH WIND       PRES   REMARKS
PHOENIX        MOSUNNY   76  44  32 SE7       29.86R
GLENDALE       MOSUNNY   73  46  38 CALM      29.88
LUKE AFB       SUNNY     75  48  38 NE2       29.86R
DEER VALLEY    MOSUNNY   73  42  32 CALM      29.88R
SCOTTSDALE     MOSUNNY   73  44  35 CALM      29.90R
MESA-FALCON    MOSUNNY   75  41  29 E6        29.88R
MESA-GATEWAY   MOSUNNY   72  43  35 E5        29.90R
CHANDLER       MOSUNNY   72  45  37 CALM      29.88R
$$

AZZ027-028-031500-
SOUTHWEST MARICOPA COUNTY AND PINAL COUNTY

CITY           SKY/WX    TMP DP  RH WIND       PRES   REMARKS
CASA GRANDE    SUNNY     72  43  35 CALM      29.88R
GILA BEND      FAIR      76  48  36 SE8       29.84R
$$

AZZ503-504-507>509-031500-
SOUTHEAST ARIZONA

CITY           SKY/WX    TMP DP  RH WIND       PRES   REMARKS
TUCSON         SUNNY     67  42  40 S7        29.96R
DAVIS-MONTHAN  SUNNY     64  44  47 SE8       29.95R
RYAN FIELD       N/A     63  43  48 CALM      29.95R
NOGALES        SUNNY     62  43  49 CALM      30.01R
SIERRA VISTA   SUNNY     60  43  54 NW2       30.06R
DOUGLAS        SUNNY     64  45  49 CALM      30.03R
SAFFORD        MOSUNNY   71  41  33 NW6       29.96R
$$

AZZ020-021-025-026-031-031500-
SOUTHWEST ARIZONA

CITY           SKY/WX    TMP DP  RH WIND       PRES   REMARKS
YUMA           SUNNY     73  55  53 S15       29.77R
$$

CAZ031-033-041-043-047-048-061-031500-
SOUTHERN CALIFORNIA

CITY           SKY/WX    TMP DP  RH WIND       PRES   REMARKS
DOWNTOWN L.A.  CLOUDY    61  53  75 CALM      29.89R
L.A. AIRPORT   PTSUNNY   60  53  77 VRB5      29.90R
SAN DIEGO      PTSUNNY   64  52  64 CALM      29.91R
BURBANK        MOSUNNY   57  48  72 CALM      29.90R
ONTARIO        PTSUNNY   57  53  86 NW3       29.89R
RIVERSIDE      CLOUDY    58  52  80 CALM      29.90R
PALM SPRINGS   SUNNY     71  42  35 CALM      29.78R
EL CENTRO NAS  MOSUNNY   69  55  60 S7        29.77R
IMPERIAL       SUNNY     69  55  60 CALM      29.75R
BLYTHE         SUNNY     71  44  37 NW5       29.79R
NEEDLES        MOSUNNY   81  37  20 CALM      29.80R
$$

NVZ020-UTZ003-031500-
SOUTHERN NEVADA-UTAH

CITY           SKY/WX    TMP DP  RH WIND       PRES   REMARKS
LAS VEGAS      MOSUNNY   72  31  22 S6        29.79R
SALT LAKE CITY MOSUNNY   62  41  46 S9        29.90R
$$

NMZ009-TXZ055-031500-
NEW MEXICO-WEST TEXAS

CITY           SKY/WX    TMP DP  RH WIND       PRES   REMARKS
ALBUQUERQUE    MOSUNNY   57  38  48 N7        30.07R
EL PASO        MOSUNNY   72  39  30 SW7       29.97R
$$


........................KEY........................
SKY/WX - SKY CONDITION/WEATHER
TMP    - TEMPERATURE IN FAHRENHEIT
DP     - DEW POINT IN FAHRENHEIT
RH     - RELATIVE HUMIDITY IN PERCENT
WIND   - DIRECTION AND SPEED IN MILES PER HOUR (MPH)
VRB    - VARIABLE WIND DIRECTION
PRES   - MEAN SEA LEVEL PRESSURE IN INCHES OF MERCURY
         F - FALLING PRESSURE   R - RISING PRESSURE
         S - STEADY PRESSURE
VSB    - VISIBILITY IN MILES
HX     - HEAT INDEX IN FAHRENHEIT
WCI    - WIND CHILL INDEX IN FAHRENHEIT
TC     - TEMPERATURE IN CELSIUS WHICH IS ALSO KNOWN AS
         TEMPERATURE IN CENTIGRADE
AFB    - AIR FORCE BASE
         LUKE AFB IS LUKE AIR FORCE BASE
         DAVIS-MONTHAN IS DAVIS-MONTHAN AIR FORCE BASE
NAS    - NAVAL AIR STATION
         EL CENTRO NAS IS EL CENTRO NAVAL AIR STATION
N/A    - NOT AVAILABLE




USA.gov is the U.S. government's official web portal to all federal, state and local government web resources and services.